| time (UTC) | temp C | wind direction | speed KPH | gust KPH | rain 1hr cm | rain 24hr cm | rain mn cm | humidity % | barometer mb |
| 20260503211352 | 7 | 198 | 17.7 | 24.1 | 0.15 | 0.36 | 0.36 | 91 | 1007.6 |
| 20260503210850 | 7 | 192 | 17.7 | 24.1 | 0.15 | 0.36 | 0.36 | 91 | 1007.6 |
| 20260503210344 | 7 | 215 | 17.7 | 25.7 | 0.15 | 0.36 | 0.36 | 91 | 1007.6 |
| 20260503205838 | 7 | 205 | 17.7 | 25.7 | 0.18 | 0.36 | 0.36 | 91 | 1008.0 |
| 20260503205328 | 7 | 191 | 17.7 | 24.1 | 0.15 | 0.33 | 0.33 | 91 | 1008.0 |
| 20260503204822 | 7 | 215 | 17.7 | 25.7 | 0.15 | 0.33 | 0.33 | 91 | 1008.0 |
| 20260503204541 | 7 | 224 | 19.3 | 25.7 | 0.15 | 0.30 | 0.30 | 90 | 1007.9 |
| 20260503203810 | 7 | 228 | 19.3 | 25.7 | 0.13 | 0.28 | 0.28 | 90 | 1007.9 |
| 20260503203304 | 7 | 210 | 19.3 | 25.7 | 0.10 | 0.25 | 0.25 | 90 | 1007.9 |
| 20260503202802 | 7 | 222 | 17.7 | 25.7 | 0.13 | 0.25 | 0.25 | 90 | 1008.0 |
| 20260503202257 | 7 | 226 | 19.3 | 27.4 | 0.13 | 0.23 | 0.23 | 90 | 1008.0 |
| 20260503201746 | 7 | 210 | 19.3 | 27.4 | 0.10 | 0.20 | 0.20 | 90 | 1008.0 |
| 20260503201244 | 7 | 210 | 17.7 | 25.7 | 0.13 | 0.20 | 0.20 | 90 | 1008.1 |
| 20260503200739 | 7 | 228 | 17.7 | 25.7 | 0.15 | 0.20 | 0.20 | 90 | 1008.1 |
| 20260503200228 | 7 | 228 | 16.1 | 24.1 | 0.13 | 0.18 | 0.18 | 90 | 1008.1 |
| 20260503195951 | 7 | 219 | 17.7 | 25.7 | 0.15 | 0.18 | 0.18 | 89 | 1008.1 |
| 20260503195216 | 7 | 210 | 17.7 | 25.7 | 0.18 | 0.18 | 0.18 | 89 | 1008.1 |
| 20260503194714 | 7 | 232 | 16.1 | 27.4 | 0.18 | 0.18 | 0.18 | 90 | 1008.1 |
| 20260503194204 | 7 | 224 | 17.7 | 29.0 | 0.15 | 0.15 | 0.15 | 90 | 1008.7 |
| 20260503193703 | 7 | 181 | 17.7 | 29.0 | 0.15 | 0.15 | 0.15 | 89 | 1008.7 |
| 20260503193157 | 7 | 246 | 17.7 | 29.0 | 0.13 | 0.13 | 0.15 | 89 | 1008.7 |
| 20260503192646 | 7 | 265 | 16.1 | 25.7 | 0.13 | 0.13 | 0.13 | 89 | 1009.1 |
| 20260503192145 | 7 | 247 | 17.7 | 29.0 | 0.10 | 0.10 | 0.10 | 88 | 1009.1 |
| 20260503191634 | 8 | 246 | 19.3 | 32.2 | 0.10 | 0.10 | 0.10 | 87 | 1009.1 |
| 20260503191132 | 8 | 256 | 20.9 | 35.4 | 0.08 | 0.08 | 0.08 | 86 | 1009.1 |
| 20260503190626 | 8 | 262 | 24.1 | 43.5 | 0.05 | 0.05 | 0.05 | 85 | 1009.1 |
| 20260503190121 | 8 | 252 | 27.4 | 43.5 | 0.03 | 0.03 | 0.05 | 83 | 1009.1 |
| 20260503185614 | 9 | 281 | 32.2 | 51.5 | 0.03 | 0.03 | 0.03 | 81 | 1008.8 |
| 20260503185553 | 10 | 253 | 35.4 | 54.7 | 0.00 | 0.00 | 0.00 | 76 | 1008.8 |
| 20260503184821 | 11 | 254 | 37.0 | 62.8 | 0.00 | 0.00 | 0.00 | 72 | 1008.3 |
| 20260503184056 | 11 | 288 | 40.2 | 62.8 | 0.00 | 0.00 | 0.00 | 66 | 1008.3 |
| 20260503183549 | 12 | 248 | 41.8 | 61.2 | 0.00 | 0.00 | 0.00 | 63 | 1008.3 |
| 20260503183308 | 13 | 252 | 38.6 | 61.2 | 0.00 | 0.00 | 0.00 | 59 | 1008.0 |
| 20260503182533 | 13 | 273 | 35.4 | 57.9 | 0.00 | 0.00 | 0.00 | 58 | 1008.0 |
| 20260503182032 | 13 | 234 | 33.8 | 53.1 | 0.00 | 0.00 | 0.00 | 57 | 1008.0 |
| 20260503181522 | 13 | 269 | 33.8 | 53.1 | 0.00 | 0.00 | 0.00 | 56 | 1008.2 |
| 20260503181020 | 13 | 252 | 29.0 | 49.9 | 0.00 | 0.00 | 0.00 | 57 | 1008.2 |
| 20260503180956 | 13 | 263 | 25.7 | 46.7 | 0.00 | 0.00 | 0.00 | 59 | 1008.2 |
| 20260503180004 | 13 | 262 | 25.7 | 46.7 | 0.00 | 0.00 | 0.00 | 58 | 1008.5 |
| 20260503175724 | 13 | 282 | 27.4 | 46.7 | 0.00 | 0.00 | 0.00 | 57 | 1008.5 |
| 20260503174952 | 13 | 254 | 25.7 | 41.8 | 0.00 | 0.00 | 0.00 | 57 | 1008.5 |
| 20260503174450 | 13 | 254 | 24.1 | 41.8 | 0.00 | 0.00 | 0.00 | 56 | 1008.7 |
| 20260503173939 | 14 | 261 | 24.1 | 37.0 | 0.00 | 0.00 | 0.00 | 56 | 1008.7 |
| 20260503173439 | 14 | 239 | 24.1 | 35.4 | 0.00 | 0.00 | 0.00 | 56 | 1008.7 |
| 20260503173148 | 13 | 263 | 27.4 | 43.5 | 0.00 | 0.00 | 0.00 | 56 | 1008.7 |
| 20260503172421 | 13 | 263 | 27.4 | 43.5 | 0.00 | 0.00 | 0.00 | 57 | 1008.7 |
| 20260503172141 | 13 | 239 | 22.5 | 41.8 | 0.00 | 0.00 | 0.00 | 59 | 1008.7 |
| 20260503171415 | 13 | 253 | 20.9 | 37.0 | 0.00 | 0.00 | 0.00 | 59 | 1009.1 |
| 20260503171130 | 12 | 236 | 22.5 | 37.0 | 0.00 | 0.00 | 0.00 | 57 | 1009.1 |
| 20260503170358 | 12 | 256 | 25.7 | 40.2 | 0.00 | 0.00 | 0.00 | 56 | 1009.1 |
| 20260503170117 | 12 | 257 | 27.4 | 40.2 | 0.00 | 0.00 | 0.00 | 55 | 1009.3 |
| 20260503150804 | 11 | 215 | 22.5 | 30.6 | 0.00 | 0.00 | 0.00 | 59 | 1010.2 |
| 20260503150304 | 10 | 246 | 20.9 | 32.2 | 0.00 | 0.00 | 0.00 | 59 | 1010.2 |
| 20260503140158 | 8 | 179 | 17.7 | 25.7 | 0.00 | 0.00 | 0.00 | 67 | 1010.7 |
| 20260503131054 | 6 | 186 | 12.9 | 19.3 | 0.00 | 0.00 | 0.00 | 71 | 1011.4 |
| 20260503130548 | 6 | 191 | 11.3 | 17.7 | 0.00 | 0.00 | 0.00 | 72 | 1011.4 |
| 20260503120157 | 1 | 210 | 9.7 | 14.5 | 0.00 | 0.00 | 0.00 | 84 | 1011.9 |
| 20260503110824 | 0 | 196 | 9.7 | 12.9 | 0.00 | 0.00 | 0.00 | 84 | 1011.8 |
| 20260503110322 | 0 | 200 | 9.7 | 11.3 | 0.00 | 0.00 | 0.00 | 85 | 1011.8 |
| 20260503100245 | -1 | 205 | 9.7 | 11.3 | 0.00 | 0.00 | 0.00 | 83 | 1011.8 |
| 20260503090236 | 0 | 210 | 9.7 | 11.3 | 0.00 | 0.00 | 0.00 | 81 | 1011.9 |
| 20260503081234 | 0 | 210 | 8.0 | 11.3 | 0.00 | 0.00 | 0.00 | 80 | 1012.0 |
| 20260503080732 | 0 | 236 | 8.0 | 11.3 | 0.00 | 0.00 | 0.00 | 80 | 1012.0 |
| 20260503080232 | 0 | 194 | 9.7 | 12.9 | 0.00 | 0.00 | 0.00 | 79 | 1012.0 |
| 20260503072646 | 0 | 170 | 12.9 | 16.1 | 0.00 | 0.00 | 0.00 | 78 | 1011.9 |
| 20260503072409 | 0 | 174 | 12.9 | 16.1 | 0.00 | 0.00 | 0.00 | 78 | 1011.9 |
| 20260503071646 | 0 | 177 | 12.9 | 16.1 | 0.00 | 0.00 | 0.00 | 78 | 1011.9 |
| 20260503071406 | 0 | 156 | 12.9 | 16.1 | 0.00 | 0.00 | 0.00 | 78 | 1012.0 |
| 20260503070646 | 0 | 184 | 11.3 | 16.1 | 0.00 | 0.00 | 0.00 | 77 | 1012.0 |
| 20260503070146 | 0 | 178 | 11.3 | 17.7 | 0.00 | 0.00 | 0.00 | 77 | 1012.0 |
| 20260503055117 | 0 | 177 | 9.7 | 12.9 | 0.00 | 0.00 | 0.00 | 73 | 1012.9 |
| 20260503054618 | 0 | 177 | 9.7 | 12.9 | 0.00 | 0.00 | 0.00 | 73 | 1012.9 |
| 20260503054118 | 0 | 175 | 9.7 | 14.5 | 0.00 | 0.00 | 0.00 | 73 | 1013.0 |
| 20260503053618 | 0 | 175 | 9.7 | 14.5 | 0.00 | 0.00 | 0.00 | 73 | 1013.0 |
| 20260503053118 | 0 | 194 | 9.7 | 12.9 | 0.00 | 0.00 | 0.00 | 73 | 1013.0 |
| 20260503052611 | 0 | 169 | 9.7 | 12.9 | 0.00 | 0.00 | 0.00 | 73 | 1013.4 |
| 20260503052059 | 0 | 174 | 9.7 | 11.3 | 0.00 | 0.00 | 0.00 | 73 | 1013.4 |
| 20260503051547 | 0 | 177 | 8.0 | 11.3 | 0.00 | 0.00 | 0.00 | 72 | 1013.5 |
| 20260503051037 | 0 | 165 | 8.0 | 9.7 | 0.00 | 0.00 | 0.00 | 72 | 1013.5 |
| 20260503050537 | 0 | 165 | 8.0 | 9.7 | 0.00 | 0.00 | 0.00 | 73 | 1013.5 |
| 20260503050037 | 0 | 173 | 6.4 | 9.7 | 0.00 | 0.00 | 0.00 | 74 | 1013.5 |
| 20260503045538 | 0 | 168 | 6.4 | 8.0 | 0.00 | 0.00 | 0.00 | 74 | 1013.5 |
| 20260503045038 | 0 | 170 | 6.4 | 8.0 | 0.00 | 0.00 | 0.00 | 74 | 1013.5 |
| 20260503044537 | 0 | 178 | 6.4 | 8.0 | 0.00 | 0.00 | 0.00 | 73 | 1013.6 |
| 20260503044244 | 0 | 188 | 6.4 | 8.0 | 0.00 | 0.00 | 0.00 | 72 | 1013.6 |
| 20260503044228 | 0 | 181 | 6.4 | 8.0 | 0.00 | 0.00 | 0.00 | 72 | 1013.6 |
| 20260503043035 | 0 | 187 | 6.4 | 8.0 | 0.00 | 0.00 | 0.00 | 72 | 1013.8 |
| 20260503042524 | 0 | 190 | 6.4 | 8.0 | 0.00 | 0.00 | 0.00 | 72 | 1013.8 |
| 20260503042017 | 0 | 189 | 6.4 | 8.0 | 0.00 | 0.00 | 0.00 | 72 | 1013.8 |
| 20260503041517 | 0 | 188 | 6.4 | 8.0 | 0.00 | 0.00 | 0.00 | 72 | 1013.9 |
| 20260503041243 | 0 | 179 | 6.4 | 8.0 | 0.00 | 0.00 | 0.00 | 73 | 1013.9 |
| 20260503040517 | 0 | 196 | 6.4 | 6.4 | 0.00 | 0.00 | 0.00 | 72 | 1013.9 |
| 20260503040016 | 0 | 196 | 4.8 | 6.4 | 0.00 | 0.00 | 0.00 | 72 | 1014.0 |
| 20260503035516 | 0 | 196 | 4.8 | 6.4 | 0.00 | 0.00 | 0.00 | 73 | 1014.0 |
| 20260503035014 | 0 | 215 | 4.8 | 6.4 | 0.00 | 0.00 | 0.00 | 72 | 1014.0 |
| 20260503034512 | 0 | 215 | 4.8 | 6.4 | 0.00 | 0.00 | 0.00 | 71 | 1014.0 |
| 20260503034010 | 0 | 223 | 4.8 | 6.4 | 0.00 | 0.00 | 0.00 | 71 | 1014.0 |
| 20260503033510 | 0 | 234 | 4.8 | 6.4 | 0.00 | 0.00 | 0.00 | 70 | 1014.0 |
| 20260503033452 | 0 | 234 | 4.8 | 6.4 | 0.00 | 0.00 | 0.00 | 70 | 1014.0 |
| 20260503032508 | 0 | 234 | 4.8 | 6.4 | 0.00 | 0.00 | 0.00 | 70 | 1014.0 |
| 20260503032006 | 0 | 234 | 6.4 | 6.4 | 0.00 | 0.00 | 0.00 | 70 | 1014.0 |
| 20260503031728 | 0 | 234 | 6.4 | 8.0 | 0.00 | 0.00 | 0.00 | 70 | 1014.0 |
| 20260503031005 | 0 | 234 | 6.4 | 8.0 | 0.00 | 0.00 | 0.00 | 70 | 1014.0 |
| 20260503030454 | 0 | 236 | 6.4 | 8.0 | 0.00 | 0.00 | 0.00 | 70 | 1014.0 |
| 20260503025952 | 0 | 238 | 8.0 | 9.7 | 0.00 | 0.00 | 0.00 | 70 | 1014.1 |
| 20260503025445 | 0 | 238 | 8.0 | 9.7 | 0.00 | 0.00 | 0.00 | 70 | 1014.1 |
| 20260503024941 | 0 | 242 | 8.0 | 9.7 | 0.00 | 0.00 | 0.00 | 70 | 1014.1 |
| 20260503024440 | 0 | 237 | 8.0 | 9.7 | 0.00 | 0.00 | 0.00 | 69 | 1014.3 |
| 20260503023941 | 0 | 234 | 6.4 | 8.0 | 0.00 | 0.00 | 0.00 | 69 | 1014.3 |
| 20260503023439 | 0 | 230 | 6.4 | 8.0 | 0.00 | 0.00 | 0.00 | 69 | 1014.3 |
| 20260503022941 | 0 | 230 | 6.4 | 8.0 | 0.00 | 0.00 | 0.00 | 68 | 1014.3 |
| 20260503022440 | 0 | 239 | 6.4 | 6.4 | 0.00 | 0.00 | 0.00 | 67 | 1014.3 |
| 20260503022207 | 0 | 242 | 6.4 | 8.0 | 0.00 | 0.00 | 0.00 | 67 | 1014.3 |
| 20260503021440 | 0 | 241 | 4.8 | 8.0 | 0.00 | 0.00 | 0.00 | 67 | 1014.3 |
| 20260503020938 | 1 | 243 | 4.8 | 6.4 | 0.00 | 0.00 | 0.00 | 67 | 1014.3 |
| 20260503020436 | 1 | 247 | 4.8 | 6.4 | 0.00 | 0.00 | 0.00 | 66 | 1014.3 |
| 20260503015936 | 1 | 247 | 4.8 | 6.4 | 0.00 | 0.00 | 0.00 | 66 | 1014.2 |
| 20260503015657 | 1 | 247 | 6.4 | 6.4 | 0.00 | 0.00 | 0.00 | 66 | 1014.2 |
| 20260503014936 | 1 | 247 | 6.4 | 6.4 | 0.00 | 0.00 | 0.00 | 66 | 1014.2 |
| 20260503014655 | 1 | 247 | 4.8 | 6.4 | 0.00 | 0.00 | 0.00 | 65 | 1014.1 |
| 20260503013936 | 1 | 247 | 4.8 | 6.4 | 0.00 | 0.00 | 0.00 | 65 | 1014.1 |
| 20260503013435 | 1 | 259 | 6.4 | 8.0 | 0.00 | 0.00 | 0.00 | 62 | 1014.1 |
| 20260503012933 | 1 | 262 | 6.4 | 8.0 | 0.00 | 0.00 | 0.00 | 62 | 1014.1 |
| 20260503012655 | 2 | 256 | 4.8 | 6.4 | 0.00 | 0.00 | 0.00 | 61 | 1014.1 |
| 20260503012147 | 2 | 251 | 4.8 | 6.4 | 0.00 | 0.00 | 0.00 | 60 | 1014.1 |
| 20260503011420 | 2 | 269 | 4.8 | 6.4 | 0.00 | 0.00 | 0.00 | 59 | 1014.0 |
| 20260503010914 | 2 | 269 | 6.4 | 8.0 | 0.00 | 0.00 | 0.00 | 59 | 1014.0 |
| 20260503010404 | 2 | 269 | 6.4 | 8.0 | 0.00 | 0.00 | 0.00 | 59 | 1014.0 |
| 20260503005902 | 3 | 270 | 6.4 | 8.0 | 0.00 | 0.00 | 0.00 | 59 | 1014.0 |
| 20260503005351 | 3 | 268 | 6.4 | 12.9 | 0.00 | 0.00 | 0.00 | 58 | 1014.0 |
| 20260503004850 | 3 | 262 | 6.4 | 12.9 | 0.00 | 0.00 | 0.00 | 57 | 1014.0 |
| 20260503004606 | 3 | 269 | 8.0 | 12.9 | 0.00 | 0.00 | 0.00 | 57 | 1014.0 |
| 20260503003834 | 3 | 288 | 9.7 | 12.9 | 0.00 | 0.00 | 0.00 | 57 | 1014.0 |
| 20260503003333 | 3 | 278 | 9.7 | 14.5 | 0.00 | 0.00 | 0.00 | 56 | 1014.0 |
| 20260503002826 | 3 | 285 | 11.3 | 16.1 | 0.00 | 0.00 | 0.00 | 56 | 1014.0 |
| 20260503002540 | 4 | 273 | 12.9 | 17.7 | 0.00 | 0.00 | 0.00 | 56 | 1014.0 |
| 20260503001809 | 4 | 302 | 11.3 | 17.7 | 0.00 | 0.00 | 0.00 | 55 | 1014.0 |
| 20260503001529 | 4 | 288 | 11.3 | 16.1 | 0.00 | 0.00 | 0.00 | 54 | 1014.0 |
| 20260503000806 | 5 | 277 | 12.9 | 19.3 | 0.00 | 0.00 | 0.00 | 54 | 1014.0 |
| 20260503000531 | 5 | 272 | 14.5 | 22.5 | 0.00 | 0.00 | 0.00 | 53 | 1014.0 |
| 20260502235806 | 5 | 284 | 16.1 | 24.1 | 0.00 | 0.00 | 0.00 | 54 | 1014.0 |
| 20260502235756 | 5 | 306 | 17.7 | 25.7 | 0.00 | 0.00 | 0.00 | 53 | 1014.0 |
| 20260502234806 | 5 | 274 | 17.7 | 25.7 | 0.00 | 0.00 | 0.00 | 54 | 1014.0 |
| 20260502234307 | 5 | 300 | 16.1 | 24.1 | 0.00 | 0.00 | 0.00 | 54 | 1014.0 |
| 20260502233806 | 5 | 305 | 16.1 | 27.4 | 0.00 | 0.00 | 0.00 | 52 | 1014.0 |
| 20260502233304 | 5 | 274 | 19.3 | 29.0 | 0.00 | 0.00 | 0.00 | 52 | 1014.0 |
| 20260502232802 | 5 | 304 | 17.7 | 29.0 | 0.00 | 0.00 | 0.00 | 51 | 1014.0 |
| 20260502232304 | 6 | 286 | 14.5 | 24.1 | 0.00 | 0.00 | 0.00 | 50 | 1014.0 |
| 20260502231802 | 6 | 290 | 17.7 | 30.6 | 0.00 | 0.00 | 0.00 | 53 | 1014.0 |
| 20260502231302 | 6 | 315 | 20.9 | 30.6 | 0.00 | 0.00 | 0.00 | 50 | 1014.0 |
| 20260502230802 | 6 | 313 | 20.9 | 27.4 | 0.00 | 0.00 | 0.00 | 52 | 1014.0 |
| 20260502230301 | 6 | 315 | 19.3 | 30.6 | 0.00 | 0.00 | 0.00 | 50 | 1014.0 |
| 20260502225801 | 6 | 331 | 20.9 | 30.6 | 0.00 | 0.00 | 0.00 | 49 | 1014.0 |
| 20260502225300 | 6 | 317 | 17.7 | 27.4 | 0.00 | 0.00 | 0.00 | 51 | 1014.0 |
| 20260502225015 | 6 | 320 | 16.1 | 33.8 | 0.00 | 0.00 | 0.00 | 51 | 1014.0 |
| 20260502224249 | 6 | 325 | 19.3 | 33.8 | 0.00 | 0.00 | 0.00 | 51 | 1014.0 |
| 20260502223742 | 6 | 335 | 20.9 | 35.4 | 0.00 | 0.00 | 0.00 | 49 | 1014.0 |
| 20260502223236 | 7 | 326 | 19.3 | 35.4 | 0.00 | 0.00 | 0.00 | 49 | 1014.0 |
| 20260502222948 | 7 | 259 | 19.3 | 30.6 | 0.00 | 0.00 | 0.00 | 47 | 1014.0 |
| 20260502222219 | 7 | 272 | 17.7 | 30.6 | 0.00 | 0.00 | 0.00 | 50 | 1014.0 |
| 20260502221718 | 7 | 315 | 16.1 | 24.1 | 0.00 | 0.00 | 0.00 | 47 | 1014.0 |
| 20260502221434 | 7 | 314 | 16.1 | 25.7 | 0.00 | 0.00 | 0.00 | 52 | 1014.1 |
| 20260502220926 | 7 | 256 | 16.1 | 35.4 | 0.00 | 0.00 | 0.00 | 52 | 1014.1 |
| 20260502220204 | 7 | 304 | 17.7 | 35.4 | 0.00 | 0.00 | 0.00 | 52 | 1014.1 |
| 20260502215932 | 7 | 254 | 20.9 | 35.4 | 0.00 | 0.00 | 0.00 | 53 | 1014.1 |
| 20260502215204 | 6 | 294 | 22.5 | 35.4 | 0.00 | 0.00 | 0.00 | 55 | 1014.1 |
| 20260502214704 | 6 | 288 | 19.3 | 33.8 | 0.00 | 0.00 | 0.00 | 55 | 1014.1 |
| 20260502214204 | 6 | 307 | 24.1 | 40.2 | 0.00 | 0.00 | 0.00 | 57 | 1014.0 |
| 20260502213704 | 6 | 299 | 24.1 | 40.2 | 0.00 | 0.00 | 0.00 | 54 | 1014.0 |
| 20260502213204 | 6 | 314 | 19.3 | 30.6 | 0.00 | 0.00 | 0.00 | 56 | 1014.0 |
| 20260502212704 | 6 | 296 | 20.9 | 37.0 | 0.00 | 0.00 | 0.00 | 57 | 1014.1 |
| 20260502212204 | 6 | 300 | 27.4 | 43.5 | 0.00 | 0.00 | 0.00 | 58 | 1014.1 |